Location: Tr�vern
(48.0333°N, 4.6000°W)
Time: 19:07:01
(UTC+00:00)

PSLV R/B - Pass Details

Date: 14 July 2020
Orbit: 598 x 701 km, 97.9° (Epoch: 12 August)

Event Time Altitude Azimuth Distance (km) Brightness Sun altitude
Rises 01:24:34 0° 7° (N) 2,873 8.6 -19.0°
Reaches altitude 10° 01:26:49 10° 0° (N) 1,974 7.3 -18.9°
Maximum altitude 01:30:50 41° 290° (WNW) 897 4.4 -18.8°
Enters shadow 01:32:25 30° 244° (WSW) 1,135 4.5 -18.7°
